FW9211 Weather Reports


time (UTC)temp
F
wind
direction
speed
knots
gust
knots
rain 1hr
in
rain 24hr
in
rain mn
in
humidity
%
barometer
mb
20260509053129 77 254 0.0 2.6 0.00 0.00 0.00 34 1021.7
20260509051552 77 0 0.9 4.3 0.00 0.00 0.00 34 1021.6
20260509050053 77 226 0.0 2.6 0.00 0.00 0.00 37 1021.7
20260509044551 75 0 0.0 2.6 0.00 0.00 0.00 36 1021.6
20260509043103 74 184 0.0 4.3 0.00 0.00 0.00 39 1021.8
20260509041603 74 0 0.0 4.3 0.00 0.00 0.00 41 1021.9
20260509040104 72 0 0.0 3.5 0.00 0.00 0.00 40 1021.8
20260509034605 71 131 0.0 4.3 0.00 0.00 0.00 42 1021.9
20260509033053 70 164 0.9 4.3 0.00 0.00 0.00 44 1022.1
20260509031603 70 234 1.7 3.5 0.00 0.00 0.00 46 1022.1
20260509030055 70 0 0.0 5.2 0.00 0.00 0.00 44 1022.1
20260509024550 69 79 0.0 5.2 0.00 0.00 0.00 45 1022.4
20260509023054 69 0 0.9 6.1 0.00 0.00 0.00 48 1022.7
20260509021555 68 95 1.7 7.0 0.00 0.00 0.00 49 1022.9
20260509020054 67 120 1.7 7.0 0.00 0.00 0.00 51 1023.0
20260509014559 66 131 2.6 10.4 0.00 0.00 0.00 50 1023.1
20260509013057 66 103 3.5 9.6 0.00 0.00 0.00 50 1023.5
20260509011555 65 127 2.6 8.7 0.00 0.00 0.00 52 1023.7
20260509010058 63 127 4.3 9.6 0.00 0.00 0.00 55 1023.8
20260509004552 62 120 4.3 12.2 0.00 0.00 0.00 56 1023.8
20260509003056 61 126 4.3 9.6 0.00 0.00 0.00 59 1023.9
20260509001552 60 113 3.5 9.6 0.00 0.00 0.00 61 1024.0
20260509000052 59 121 4.3 11.3 0.00 0.00 0.00 65 1024.1
20260508234555 58 113 4.3 11.3 0.00 0.00 0.00 67 1024.1
20260508233106 57 93 4.3 10.4 0.00 0.00 0.00 69 1024.1
20260508231554 55 130 2.6 8.7 0.00 0.00 0.00 74 1024.1
20260508230104 53 123 3.5 10.4 0.00 0.00 0.00 78 1024.0
20260508224555 51 116 4.3 8.7 0.00 0.00 0.00 80 1024.0
20260508223055 49 116 3.5 7.0 0.00 0.00 0.00 82 1023.8
20260508221552 48 138 2.6 7.0 0.00 0.00 0.00 83 1023.8
20260508220057 47 98 0.9 5.2 0.00 0.00 0.00 85 1023.7
20260508214605 46 127 1.7 6.1 0.00 0.00 0.00 86 1023.6
20260508213052 45 81 2.6 6.1 0.00 0.00 0.00 87 1023.5
20260508211555 45 132 0.9 3.5 0.00 0.00 0.00 88 1023.5
20260508210056 44 96 0.0 5.2 0.00 0.00 0.00 88 1023.4
20260508204555 44 0 0.9 3.5 0.00 0.00 0.00 89 1023.2
20260508203052 44 108 0.0 2.6 0.00 0.00 0.00 88 1023.0
20260508201552 44 120 0.0 4.3 0.00 0.00 0.00 87 1022.8
20260508200058 44 110 0.9 4.3 0.00 0.00 0.00 88 1022.9
20260508194552 44 78 0.9 6.1 0.00 0.00 0.00 88 1022.7
20260508193058 44 118 0.0 2.6 0.00 0.00 0.00 87 1022.5
20260508191600 45 0 0.0 2.6 0.00 0.00 0.00 87 1022.4
20260508190054 45 94 0.0 3.5 0.00 0.00 0.00 86 1022.1
20260508184555 45 0 0.9 3.5 0.00 0.00 0.00 85 1022.1
20260508183053 45 0 0.0 2.6 0.00 0.00 0.00 85 1022.1
20260508181552 45 0 0.0 0.9 0.00 0.00 0.00 85 1022.1
20260508180048 46 0 0.0 3.5 0.00 0.00 0.00 85 1022.1
20260508174553 45 0 0.0 0.9 0.00 0.00 0.00 85 1022.0
20260508173052 45 0 0.0 0.9 0.00 0.00 0.00 85 1022.0
20260508171555 46 0 0.0 0.9 0.00 0.00 0.00 84 1022.0
20260508170058 46 0 0.0 2.6 0.00 0.00 0.00 85 1022.2
20260508164555 45 0 0.0 0.0 0.00 0.00 0.00 88 1022.2
20260508163054 44 0 0.0 0.0 0.00 0.00 0.00 89 1022.3
20260508161552 43 0 0.0 0.0 0.00 0.00 0.00 89 1022.3
20260508160058 43 0 0.0 0.0 0.00 0.00 0.00 89 1022.4
20260508154552 43 0 0.0 0.0 0.00 0.00 0.00 88 1022.4
20260508153055 44 0 0.0 0.0 0.00 0.00 0.00 88 1022.4
20260508151557 45 0 0.0 0.0 0.00 0.00 0.00 86 1022.6
20260508150054 46 0 0.0 0.0 0.00 0.00 0.00 85 1022.7
20260508144555 47 0 0.0 0.0 0.00 0.00 0.00 83 1022.6
20260508143112 47 0 0.0 0.0 0.00 0.00 0.00 83 1022.7
20260508141557 46 0 0.0 0.0 0.00 0.00 0.00 84 1022.8
20260508140059 46 0 0.0 0.0 0.00 0.00 0.00 83 1022.9
20260508134555 47 0 0.0 0.0 0.00 0.00 0.00 83 1022.9
20260508133100 48 0 0.0 0.0 0.00 0.00 0.00 81 1022.9
20260508131556 48 0 0.0 0.0 0.00 0.00 0.00 80 1023.0
20260508130108 49 0 0.0 0.0 0.00 0.00 0.00 77 1023.1
20260508124555 51 0 0.0 0.0 0.00 0.00 0.00 73 1023.2
20260508123103 51 0 0.0 0.0 0.00 0.00 0.00 74 1023.5
20260508121607 50 0 0.0 0.0 0.00 0.00 0.00 77 1023.4
20260508120057 50 0 0.0 0.0 0.00 0.00 0.00 76 1023.5
20260508114555 52 0 0.0 0.0 0.00 0.00 0.00 71 1023.6
20260508113053 54 0 0.0 3.5 0.00 0.00 0.00 68 1023.6
20260508111554 54 147 2.6 8.7 0.00 0.00 0.00 67 1023.5
20260508110057 54 114 3.5 7.0 0.00 0.00 0.00 68 1023.4
20260508104617 54 127 0.9 5.2 0.00 0.00 0.00 68 1023.3
20260508103051 53 0 0.0 0.9 0.00 0.00 0.00 70 1023.0
20260508101554 51 0 0.0 0.0 0.00 0.00 0.00 73 1022.9
20260508100052 53 0 0.0 0.0 0.00 0.00 0.00 68 1022.5
20260508094550 55 0 0.0 0.0 0.00 0.00 0.00 65 1022.6
20260508093055 56 0 0.0 0.0 0.00 0.00 0.00 64 1022.4
20260508091553 56 0 0.0 3.5 0.00 0.00 0.00 62 1022.2
20260508090107 56 0 0.0 2.6 0.00 0.00 0.00 62 1021.9
20260508084553 57 171 0.0 1.7 0.00 0.00 0.00 61 1021.5
20260508083109 57 0 0.0 0.9 0.00 0.00 0.00 59 1021.4
20260508081559 58 0 0.0 5.2 0.00 0.00 0.00 58 1021.2
20260508080057 58 133 0.0 0.9 0.00 0.00 0.00 57 1021.0
20260508074551 59 0 0.0 1.7 0.00 0.00 0.00 55 1020.8
20260508073051 60 202 0.0 3.5 0.00 0.00 0.00 53 1020.6
20260508071600 62 187 0.0 1.7 0.00 0.00 0.00 51 1020.5
20260508070139 63 172 0.0 1.7 0.00 0.00 0.00 48 1020.5
20260508064606 65 0 0.0 1.7 0.00 0.00 0.00 46 1020.4
20260508063051 66 267 0.9 6.1 0.00 0.00 0.00 45 1020.3
20260508061555 66 0 0.9 4.3 0.00 0.00 0.00 45 1020.4
20260508060058 72 0 0.0 3.5 0.00 0.00 0.00 38 1020.3
20260508054554 72 165 0.0 4.3 0.00 0.00 0.00 36 1020.3